Middleton, WI

1:31 AM CDT on April 24, 2017 (GMT -0500)
Middleton

Weather History for KC29 - August, 2014

Change the Weather History Date:

Friday, August 22, 2014

  Actual Average (KMSN) Record (KMSN)
Temperature  
Mean Temperature 79 °F -  
Max Temperature 89 °F 78 °F 94 °F (1976)
Min Temperature 69 °F 56 °F 44 °F (1967)
Cooling Degree Days 14    
Growing Degree Days 29 (Base 50)    
Moisture  
Dew Point 74 °F    
Average Humidity 88    
Maximum Humidity 100    
Minimum Humidity 55    
Precipitation  
Precipitation 0.00 in - - ()
Sea Level Pressure  
Sea Level Pressure 29.94 in    
Wind  
Wind Speed 1 mph (South)    
Max Wind Speed 10 mph    
Max Gust Speed -    
Visibility 6 miles    
Events      
Averages and records for this station are not official NWS values.
T = Trace of Precipitation, MM = Missing Value Source: NWS Daily Summary

Daily Weather History Graph

Daily Weather History Graph

Search for Another Location

Airport or City:

Trip Planner

Search our weather history database for the weather conditions in past years. The results will help you decide how hot, cold, wet, or windy it might be!

Date:

Astronomy

Aug. 22, 2014 Rise Set
Actual Time 6:11 AM CDT 7:49 PM CDT
Civil Twilight 5:41 AM CDT 8:19 PM CDT
Nautical Twilight 5:04 AM CDT 8:55 PM CDT
Astronomical Twilight 4:25 AM CDT 9:34 PM CDT
Moon 3:32 AM CDT (8/22) 5:59 PM CDT (8/22)
Length of Visible Light 14h 38m
Length of Day
13h 38m
Waning Crescent, 7% of the Moon is Illuminated
Aug 22
Waning Crescent
Aug 25
New
Sep 2
First Quarter
Sep 8
Full
Sep 15
Last Quarter

Hourly Weather History & Observations

Time (CDT) Temp. Heat Index Dew Point Humidity Pressure Visibility Wind Dir Wind Speed Gust Speed Precip Events Conditions
12:15 AM 72.0 °F - 72.0 °F 100% 29.94 in 4.0 mi Calm Calm - N/A   Scattered Clouds
12:35 AM 71.6 °F - 71.6 °F 100% 29.93 in 3.0 mi Calm Calm - N/A   Clear
12:55 AM 72.1 °F - 72.1 °F 100% 29.92 in 3.0 mi Calm Calm - N/A   Clear
1:15 AM 70.5 °F - 70.5 °F 100% 29.91 in 1.8 mi Calm Calm - N/A   Scattered Clouds
1:55 AM 69.6 °F - 69.6 °F 100% 29.90 in 0.5 mi Calm Calm - N/A   Overcast
2:15 AM 69.8 °F - 69.8 °F 100% 29.90 in 0.8 mi Calm Calm - N/A   Overcast
2:35 AM 69.6 °F - 69.6 °F 100% 29.89 in 0.2 mi Calm Calm - N/A   Overcast
2:55 AM 69.8 °F - 69.8 °F 100% 29.89 in 0.8 mi Calm Calm - N/A   Overcast
3:15 AM 69.8 °F - 69.8 °F 100% 29.88 in 0.2 mi Calm Calm - N/A   Overcast
3:35 AM 69.8 °F - 69.8 °F 100% 29.90 in 0.8 mi Calm Calm - N/A   Overcast
3:55 AM 70.7 °F - 70.7 °F 100% 29.91 in 2.5 mi Calm Calm - N/A   Overcast
4:15 AM 70.7 °F - 70.7 °F 100% 29.92 in 3.0 mi Calm Calm - N/A   Overcast
4:35 AM 71.1 °F - 71.1 °F 100% 29.92 in 3.0 mi Calm Calm - N/A   Overcast
4:55 AM 71.1 °F - 71.1 °F 100% 29.92 in 4.0 mi Calm Calm - N/A   Overcast
5:15 AM 73.2 °F - 73.2 °F 100% 29.91 in 4.0 mi Calm Calm - N/A   Overcast
5:35 AM 72.5 °F - 72.5 °F 100% 29.92 in 4.0 mi Calm Calm - N/A   Overcast
5:55 AM 73.4 °F - 73.4 °F 100% 29.92 in 3.0 mi Calm Calm - N/A   Overcast
6:15 AM 73.4 °F - 73.4 °F 100% 29.92 in 1.8 mi Calm Calm - N/A   Overcast
6:35 AM 72.5 °F - 72.5 °F 100% 29.91 in 1.2 mi Calm Calm - N/A   Overcast
6:55 AM 73.4 °F - 73.4 °F 100% 29.92 in 1.5 mi Calm Calm - N/A   Overcast
7:15 AM 74.1 °F - 74.1 °F 100% 29.94 in 1.2 mi SE 3.5 mph - N/A   Overcast
7:35 AM 74.1 °F - 74.1 °F 100% 29.94 in 1.2 mi SE 4.6 mph - N/A   Overcast
7:55 AM 74.3 °F - 74.3 °F 100% 29.94 in 1.2 mi ESE 4.6 mph - N/A   Overcast
8:15 AM 74.7 °F - 74.7 °F 100% 29.94 in 2.5 mi SE 3.5 mph - N/A   Overcast
8:35 AM 75.2 °F - 75.2 °F 100% 29.94 in 3.0 mi East 3.5 mph - N/A   Overcast
8:55 AM 76.1 °F - 75.7 °F 99% 29.95 in 4.0 mi SE 4.6 mph - N/A   Overcast
9:15 AM 76.5 °F - 75.7 °F 98% 29.96 in 5.0 mi Calm Calm - N/A   Overcast
9:35 AM 77.9 °F - 75.7 °F 93% 29.95 in 7.0 mi Calm Calm - N/A   Overcast
9:55 AM 78.6 °F - 75.6 °F 90% 29.96 in 7.0 mi Calm Calm - N/A   Overcast
10:15 AM 79.5 °F - 76.3 °F 90% 29.96 in 7.0 mi Calm Calm - N/A   Overcast
10:55 AM 81.7 °F 88.5 °F 75.7 °F 82% 29.97 in 10.0 mi Calm Calm - N/A   Mostly Cloudy
11:15 AM 82.6 °F 91.1 °F 76.8 °F 83% 29.97 in 10.0 mi South 3.5 mph - N/A   Mostly Cloudy
11:55 AM 83.1 °F 91.6 °F 76.3 °F 80% 29.96 in 10.0 mi SSE 3.5 mph - N/A   Mostly Cloudy
12:15 PM 84.6 °F 94.3 °F 76.5 °F 77% 29.96 in 10.0 mi SSW 5.8 mph - N/A   Mostly Cloudy
12:35 PM 86.0 °F 96.0 °F 75.9 °F 72% 29.95 in 10.0 mi SSW 5.8 mph - N/A   Mostly Cloudy
12:55 PM 86.0 °F 96.4 °F 76.5 °F 73% 29.95 in 10.0 mi SSW 5.8 mph - N/A   Overcast
1:15 PM 86.5 °F 97.8 °F 77.0 °F 73% 29.95 in 10.0 mi SSW 10.4 mph - N/A   Overcast
1:35 PM 86.2 °F 96.4 °F 76.3 °F 72% 29.95 in 10.0 mi SW 5.8 mph - N/A   Scattered Clouds
1:55 PM - - - N/A% 29.94 in 10.0 mi SSE 3.5 mph - N/A   Scattered Clouds
2:15 PM 87.8 °F 94.7 °F 72.5 °F 60% 29.94 in 10.0 mi West 3.5 mph - N/A   Scattered Clouds
2:35 PM 88.2 °F 95.0 °F 72.0 °F 59% 29.93 in 10.0 mi West 5.8 mph - N/A   Scattered Clouds
2:55 PM - - - N/A% 29.93 in 10.0 mi Calm Calm - N/A   Scattered Clouds
3:15 PM 88.9 °F 95.1 °F 71.2 °F 56% 29.93 in 10.0 mi SW 4.6 mph - N/A   Scattered Clouds
3:35 PM 87.8 °F 93.8 °F 71.2 °F 58% 29.93 in 10.0 mi NW 3.5 mph - N/A   Scattered Clouds
3:55 PM 89.2 °F 95.4 °F 71.2 °F 55% 29.93 in 10.0 mi WNW 3.5 mph - N/A   Scattered Clouds
4:15 PM - - - N/A% 29.93 in 10.0 mi NW 4.6 mph - N/A   Clear
4:55 PM - - - N/A% 29.93 in 10.0 mi WNW 3.5 mph - N/A   Clear
5:15 PM 89.6 °F 96.2 °F 71.4 °F 55% 29.93 in 10.0 mi WNW 3.5 mph - N/A   Clear
5:35 PM 86.9 °F 95.4 °F 74.3 °F 66% 29.93 in 10.0 mi Calm Calm - N/A   Scattered Clouds
5:55 PM 88.7 °F 94.8 °F 71.2 °F 56% 29.93 in 10.0 mi Calm Calm - N/A   Clear
6:15 PM - - - N/A% 29.93 in 10.0 mi Calm Calm - N/A   Clear
6:35 PM 87.1 °F 94.5 °F 73.2 °F 63% 29.93 in 10.0 mi Calm Calm - N/A   Clear
6:55 PM 86.4 °F 95.5 °F 75.2 °F 69% 29.93 in 10.0 mi Calm Calm - N/A   Clear
7:15 PM 85.8 °F 94.6 °F 75.0 °F 70% 29.94 in 10.0 mi Calm Calm - N/A   Clear
7:35 PM 83.5 °F 92.2 °F 76.3 °F 79% 29.94 in 10.0 mi Calm Calm - N/A   Clear
7:55 PM 81.1 °F 88.7 °F 77.7 °F 89% 29.94 in 10.0 mi Calm Calm - N/A   Clear
8:15 PM 80.1 °F 86.3 °F 77.7 °F 93% 29.96 in 10.0 mi Calm Calm - N/A   Clear
8:35 PM 77.5 °F - 76.8 °F 98% 29.96 in 10.0 mi Calm Calm - N/A   Scattered Clouds
8:55 PM 77.7 °F - 77.0 °F 98% 29.97 in 10.0 mi Calm Calm - N/A   Mostly Cloudy
9:15 PM 77.7 °F - 76.8 °F 97% 29.97 in 10.0 mi Calm Calm - N/A   Scattered Clouds
9:35 PM 76.5 °F - 76.1 °F 99% 29.97 in 7.0 mi Calm Calm - N/A   Scattered Clouds
9:55 PM 76.8 °F - 76.5 °F 99% 29.97 in 7.0 mi Calm Calm - N/A   Scattered Clouds
10:15 PM 76.1 °F - 75.7 °F 99% 29.98 in 7.0 mi East 4.6 mph - N/A   Scattered Clouds
10:55 PM 79.2 °F - 77.4 °F 94% 29.98 in 10.0 mi SE 5.8 mph - N/A   Mostly Cloudy
11:15 PM 78.8 °F - 77.0 °F 94% 29.98 in 10.0 mi SSE 4.6 mph - N/A   Scattered Clouds
11:55 PM 78.8 °F - 77.5 °F 96% 29.98 in 7.0 mi ESE 4.6 mph - N/A   Overcast